Tracking 25709 objects as of 23-May-2022
HD Live streaming from Space Station
objects crossing your sky now

COSMOS 2251 DEB

Track COSMOS 2251 DEB now!
10-day predictions


NORAD ID: 34966
Int'l Code: 1993-036AEV
Perigee: 464.9 km
Apogee: 491.5 km
Inclination: 74.0 °
Period: 94.0 minutes
Semi major axis: 6849 km
RCS: 0.0105 m2 (small)
Launch date: June 16, 1993
Source: Commonwealth of Independent States (former USSR) (CIS)
Launch site: PLESETSK MISSILE AND SPACE COMPLEX (PKMTR)

Note: This is SATELLITE DEBRIS
aabbcc
Your satellite tracking list
Your tracking list is empty




NASA's NSSDC Master Catalog

Two Line Element Set (TLE):
1 34966U 93036AEV 22142.35789661  .00235494  00000-0  74423-2 0  9994
2 34966  73.9526 176.3039 0019424 338.1872  21.8501 15.31585079704162
Source of the keplerian elements: AFSPC